Tracking 30923 objects as of 1-Jul-2025
HD Live streaming from Space Station
objects crossing your sky now

STARLINK-3266

Track STARLINK-3266 now!
10-day predictions
STARLINK-3266 is classified as:


NORAD ID: 50195
Int'l Code: 2021-125AR
Perigee: 546.2 km
Apogee: 547.6 km
Inclination: 53.2 °
Period: 95.4 minutes
Semi major axis: 6917 km
RCS: Unknown
Launch date: December 18, 2021
Source: United States (US)
Launch site: AIR FORCE WESTERN TEST RANGE (AFWTR)
Your satellite tracking list
Your tracking list is empty




NASA's NSSDC Master Catalog

Two Line Element Set (TLE):
1 50195U 21125AR  25181.79633490 -.00000312  00000-0 -15237-5 0  9990
2 50195  53.2175 289.9141 0001071  93.8378 266.2736 15.08835706198706
Source of the keplerian elements: AFSPC